Orbital Elements at Epoch 2459200.5 (2020-Dec-17.0) TDB
Reference: JPL 14 (heliocentric ecliptic J2000)
Element | Value | Uncertainty (1-sigma) | Units |
e | .2185640964791808 | 5.9883e-08 | |
a | 2.4377216247495 | 1.439e-08 | au |
q | 1.904923200368365 | 1.474e-07 | au |
i | 2.434209391282617 | 6.6602e-06 | deg |
node | 4.410943516168287 | 0.00014862 | deg |
peri | 354.1688842999954 | 0.00014923 | deg |
M | 212.754147349591 | 1.4384e-05 | deg |
tp | 2459769.110875854117 (2022-Jul-08.61087585) | 5.7913e-05 | TDB |
period | 1390.191381440673 3.81 | 1.231e-05 3.37e-08 | d yr |
n | .2589571513721567 | 2.293e-09 | deg/d |
Q | 2.970520049130636 | 1.7535e-08 | au |
|
| | Orbit Determination Parameters
Additional Information
|